BUS_NAME,NETWORK_OPERATOR_ID,CONNECTION_TYPE,PARTY,UNIT_OF_MEASURE,FLOW,STATUS,MD_DATE,TP1,TP2,TP3,TP4,TP5,TP6,TP7,TP8,TP9,TP10,TP11,TP12,TP13,TP14,TP15,TP16,TP17,TP18,TP19,TP20,TP21,TP22,TP23,TP24,TP25,TP26,TP27,TP28,TP29,TP30,TP31,TP32,TP33,TP34,TP35,TP36,TP37,TP38,TP39,TP40,TP41,TP42,TP43,TP44,TP45,TP46,TP47,TP48,TP49,TP50,CHECKSUM
KPO1101,ECNZ,GG,ECNZ,kWh,I,F,01/03/1999,20620,21010,21030,20460,20210,21270,21330,20510,20510,20490,20920,20530,20540,20990,21100,21720,21660,21810,21610,21690,21710,21500,21970,21930,21210,21860,21590,21650,21140,21380,21130,21130,21180,21360,21330,21170,19270,22520,21620,21290,21670,21300,21320,21280,21150,22200,21550,19990,1018410
KPO1101,ECNZ,GG,ECNZ,kWh,I,F,02/03/1999,20970,21430,20310,20800,20260,20800,21440,21310,21490,21800,21610,22100,21870,21920,21630,21360,20310,21310,20390,20700,20880,21890,22300,22210,22400,22140,24250,22860,20600,20250,20640,20950,20490,20300,20900,19910,19410,19950,20600,20230,21230,20700,19980,21010,20210,20420,21220,20620,1012360
KPO1101,ECNZ,GG,ECNZ,kWh,I,F,03/03/1999,20790,21630,21500,21730,21160,20960,20940,21470,20980,20850,20710,20910,20770,21080,21300,21360,20210,21130,21490,22600,21880,20560,23870,23370,22510,20300,20890,20860,21100,19930,19940,22390,24900,27850,28050,27920,27270,27480,27510,30140,31410,31330,30430,31330,31950,32650,31770,30840,1154000
KPO1101,ECNZ,GG,ECNZ,kWh,I,F,04/03/1999,31380,31000,28130,28050,25560,25910,25970,25890,26230,24890,24770,24560,25930,25890,25050,26370,27840,27770,27800,27730,27770,27770,27860,27700,27660,27710,27770,27530,22400,22080,22160,22150,22040,21990,22040,21940,21780,21900,22560,22410,22080,22160,21680,20870,21530,20550,19940,21250,1194000
KPO1101,ECNZ,GG,ECNZ,kWh,I,F,05/03/1999,21380,22440,27390,28600,29050,29060,29240,29090,27340,23390,24020,23490,22390,22480,24690,30210,30300,30530,30630,22230,21960,23090,22500,22470,22640,22460,29340,30210,30200,30130,23630,21430,25880,27340,28230,28190,23750,21380,21440,21440,21360,21400,21520,22450,21340,21170,21000,21270,1197170
KPO1101,ECNZ,GG,ECNZ,kWh,I,F,06/03/1999,20800,21250,19710,21710,22700,21720,22140,21620,20960,22540,22500,22770,22600,22320,22500,22520,22430,21950,20800,20720,20650,20400,21420,22000,21190,20840,24750,21810,23220,23210,20740,20530,20610,21030,20930,20960,21020,20960,21090,20920,20640,20500,21170,20470,20660,20360,22300,21140,1031780
KPO1101,ECNZ,GG,ECNZ,kWh,I,F,07/03/1999,21480,22140,22420,21030,22240,22350,22270,22320,21960,21660,22480,21630,21750,21820,20390,20330,20270,20540,20590,20750,20860,20990,21210,21630,21520,20940,21570,20710,20450,20050,20950,20480,20780,20580,20270,20370,20490,20460,20360,20470,20420,20180,20150,20530,20830,22640,21900,22710,1014920
KPO1101,ECNZ,GG,ECNZ,kWh,I,F,08/03/1999,21750,21330,21410,21600,21760,21380,21010,20880,21010,20560,20680,21090,21430,20410,20940,21130,21040,20710,20600,20940,21930,22280,21950,22240,20900,20760,20830,20900,22510,21580,20010,20620,22550,21200,21570,21760,21880,22050,21700,22080,21660,23440,22010,21290,22300,21840,20150,20970,1026620
KPO1101,ECNZ,GG,ECNZ,kWh,I,F,09/03/1999,22120,20930,20660,21230,22230,22410,20870,20990,20960,20980,20930,20860,21630,22560,28770,28620,28720,28770,28740,28710,27590,28710,28800,28700,28710,28780,28780,28550,28770,28740,28710,28720,26630,26150,26220,26170,26240,26290,26240,26440,28700,26320,22300,23890,22560,22910,21700,21650,1215660
KPO1101,ECNZ,GG,ECNZ,kWh,I,F,10/03/1999,21410,20700,21240,21310,20670,20150,22770,21240,21040,20490,21340,21360,21990,21560,24290,24980,24400,24430,24430,24410,24590,24540,24520,24380,24320,24140,24320,24270,24300,23200,24360,24360,24390,24350,24040,24330,24220,24270,24430,24590,24240,24000,22140,20720,21570,20260,20480,20570,1104110
KPO1101,ECNZ,GG,ECNZ,kWh,I,F,11/03/1999,20890,19860,20920,20590,20660,21090,20850,20200,20520,21270,21200,20620,19740,20330,20210,20460,20270,20720,20910,20710,21550,19080,18870,22000,20100,20760,21440,21200,20970,20390,19790,20930,19960,20480,20350,20250,19970,21520,19620,21580,20030,19610,19580,19550,20060,20290,20240,21130,983320
KPO1101,ECNZ,GG,ECNZ,kWh,I,F,12/03/1999,22340,22200,22900,23660,21760,22050,23210,22940,20950,21860,21400,21780,21700,22070,21450,21160,21640,20500,20440,20160,20340,19510,21450,20530,20480,21860,21130,21820,21540,20900,20880,20980,21020,20880,21710,19650,19860,20140,21080,25080,23590,22820,20710,22730,21680,20380,21270,22160,1032350
KPO1101,ECNZ,GG,ECNZ,kWh,I,F,13/03/1999,22460,21770,23320,23000,21510,21260,20940,21220,21040,21550,21360,21630,21330,21150,21230,21100,21010,20960,20830,20280,21040,21090,20940,20400,21140,19920,20950,20900,21230,21070,21050,21820,20400,20430,20530,20210,19990,20180,20350,20760,20520,20560,20310,20060,20410,19610,19970,20660,1005450
KPO1101,ECNZ,GG,ECNZ,kWh,I,F,14/03/1999,21390,20210,20480,20640,19570,20650,20660,20110,20210,20240,20440,20930,20760,21800,21600,20530,20520,21720,21040,20820,20620,21300,20700,20330,20520,20570,20490,20490,20440,20300,20200,20370,20100,20200,19990,19970,19940,20400,19870,21290,21500,21710,21820,20720,20140,21030,21110,21050,991490
KPO1101,ECNZ,GG,ECNZ,kWh,I,F,15/03/1999,19460,21480,21990,21360,22110,20620,21040,21040,21330,21510,21830,22330,22190,23600,22940,21960,22210,22410,22500,22780,22840,23240,22930,22870,23380,24580,24030,24440,25660,26810,29120,28880,29080,28720,28760,28630,28260,28770,25140,25150,24380,23900,23470,19610,20880,20480,20980,21440,1133120
KPO1101,ECNZ,GG,ECNZ,kWh,I,F,16/03/1999,21370,21190,21520,20910,21670,22460,21810,20380,20330,21180,21600,21680,20950,21830,20480,20640,20150,20330,20440,20450,20640,20300,20590,20890,20170,20390,20300,20390,20330,20360,20310,20190,22070,27770,29760,30410,29920,29920,29970,31140,30630,30030,30010,29440,28100,25840,26430,27700,1125370
KPO1101,ECNZ,GG,ECNZ,kWh,I,F,17/03/1999,25370,24610,24800,24010,24440,22900,23250,23800,23970,25950,23980,20920,21630,21820,22040,22000,21370,21440,21540,21050,21310,21070,21210,21100,21110,21050,20980,20970,22290,20460,20750,20710,20790,20800,20790,20720,20430,20920,20920,20880,21250,24130,24540,23580,24120,23160,23110,21820,1065860
KPO1101,ECNZ,GG,ECNZ,kWh,I,F,18/03/1999,21540,22010,22700,21970,22060,21710,21230,20910,21260,21680,21150,21170,21480,21840,24330,25940,26020,29470,29110,29820,25720,22340,23400,22440,22520,22450,21550,21360,20530,20440,21100,21750,21210,21920,20910,21300,22300,24020,25470,35590,36100,37500,36690,36840,37350,36210,36610,37620,1220640
KPO1101,ECNZ,GG,ECNZ,kWh,I,F,19/03/1999,36740,37050,37070,36920,37280,38620,36450,21100,20830,21280,20790,20650,20870,21020,20660,21900,20950,20210,21390,21140,20630,20740,20170,20600,20580,20680,20250,21380,21410,21410,20630,20000,20140,19940,21000,21250,20440,21630,21030,33470,36580,36020,35550,33970,35820,35800,36310,37160,1247510
KPO1101,ECNZ,GG,ECNZ,kWh,I,F,20/03/1999,36920,35720,36040,34860,35840,36000,36220,21460,19970,19890,19870,20360,20440,20340,20410,20500,22010,20340,21500,21470,20780,20790,20890,21810,20670,20740,21210,20690,21990,22450,22460,21750,21480,21330,21200,21090,20880,20870,20540,21470,21250,19920,21600,20650,20370,19860,20290,20250,1109440
KPO1101,ECNZ,GG,ECNZ,kWh,I,F,21/03/1999,20300,20180,20490,20700,19740,19660,19800,20910,20790,21010,20850,20280,20760,21090,21160,21420,20600,19480,19330,19300,19380,19310,19310,19270,19230,19240,19180,19200,19180,19130,19230,19060,18990,19080,18910,19040,18970,19160,20030,20150,20150,21130,21790,21020,21430,21170,19950,19860,19710,19680,998790
KPO1101,ECNZ,GG,ECNZ,kWh,I,F,22/03/1999,20760,20430,20340,19680,19880,19710,19780,20450,20690,20640,20770,20530,22390,20730,20460,20570,20570,20590,20490,20430,20340,20060,20400,20320,20350,20060,20150,20150,19940,19980,20120,20050,20080,21450,19950,21310,21570,21710,21250,20230,19990,20430,20350,20270,21210,20390,20700,21990,984690
KPO1101,ECNZ,GG,ECNZ,kWh,I,F,23/03/1999,22560,22460,21500,20100,20780,20400,20740,22110,22210,22230,20280,22230,23470,25960,27020,30000,30680,30610,30740,30380,30920,27980,25160,25260,23830,24400,24780,23180,24630,27450,23920,21170,20160,21020,20420,20430,21680,21570,21120,20640,21200,20830,20730,20310,20890,20590,20640,19600,1120970
KPO1101,ECNZ,GG,ECNZ,kWh,I,F,24/03/1999,20270,20680,21820,21090,20950,22150,21290,21050,21840,20190,22480,23470,32120,33820,32390,32060,31190,32250,31410,31560,31710,31430,31870,31270,27090,24560,21430,22370,21290,22260,20510,20530,20540,20410,20270,20380,20220,20320,20330,20250,20300,20410,20250,20300,20270,20080,21630,20460,1146820
KPO1101,ECNZ,GG,ECNZ,kWh,I,F,25/03/1999,20530,20210,21260,20800,20770,21050,20970,20230,20060,20890,21440,21480,20270,20270,21110,20560,20340,20480,20420,20680,20540,20600,20670,20630,19890,20890,20540,20480,21170,20710,20580,20320,21600,24070,24380,24500,25590,25590,25380,25900,25140,25630,24260,22790,22320,23850,23210,23140,1048190
KPO1101,ECNZ,GG,ECNZ,kWh,I,F,26/03/1999,21750,22970,20980,21400,20960,20600,20450,20410,20960,21000,21030,21790,23700,21560,20280,22080,21940,22080,22200,22430,22580,22590,22880,24080,25230,25030,25180,24070,25210,25260,25760,25640,25430,25350,24500,25610,25610,24600,19340,19820,20930,20520,20510,21230,21300,22670,21110,22630,1085240
KPO1101,ECNZ,GG,ECNZ,kWh,I,F,27/03/1999,23040,22510,21430,22820,22690,19940,20990,24240,22990,21170,20920,20940,21630,21630,21290,21450,21610,21390,21440,21370,21260,20950,21250,21120,20940,20640,20780,21050,20370,20800,20380,20490,20720,20420,20520,20620,20660,20920,20070,20310,20510,20500,20640,20500,20250,20250,20570,20540,1013520
KPO1101,ECNZ,GG,ECNZ,kWh,I,F,28/03/1999,20810,20320,20400,20410,20170,20490,20600,20510,20320,20270,20650,20920,20170,20640,22340,21290,21620,21270,21540,20780,20750,21380,20250,20850,20750,19600,20940,20350,20240,19490,19110,20150,20400,22490,20730,20890,21330,21080,20540,22170,19420,19940,22080,19800,20690,20260,20540,20450,992190
KPO1101,ECNZ,GG,ECNZ,kWh,I,F,29/03/1999,19790,19820,19520,20100,21030,21300,21140,21220,21230,20980,21160,22560,20810,21270,21830,20820,20360,20590,20770,21480,20550,20620,20830,20640,20680,20750,20780,20680,20390,20950,20900,20900,20810,20710,20380,20880,20960,20850,20590,20700,21520,22410,22500,22280,21110,21780,20990,21120,1006040
KPO1101,ECNZ,GG,ECNZ,kWh,I,F,30/03/1999,22020,20620,20860,21240,21050,20860,21260,21350,21280,21640,22040,21100,20240,20350,21530,20710,20490,20290,20340,20380,20310,20710,20930,20670,20600,22650,20720,20370,20800,20550,20140,20190,21160,21280,21360,21210,21550,23160,20710,20260,20340,20340,20410,20430,20310,20910,20690,20080,1002490
KPO1101,ECNZ,GG,ECNZ,kWh,I,F,31/03/1999,21150,21120,20750,20810,20760,20580,20640,20760,20630,19870,20720,21350,21950,22510,21060,20440,20600,20720,20810,20900,20970,20980,21020,21050,21060,20500,20740,21040,21360,20760,22090,20260,20130,21390,21550,21380,20350,21340,21410,21310,21440,20910,19730,19740,19270,20140,21130,20010,1001190
KPO1101,ECNZ,GG,ECNZ,kWh,I,F,01/04/1999,19820,20840,21140,21530,21130,19520,19920,21420,21640,22160,20710,21420,20790,20810,21010,21020,20840,21200,21270,21060,21410,21260,21370,20350,20030,19980,19940,19770,19960,19940,19940,19810,19660,20100,20000,20060,20070,20920,20910,20790,20470,20980,20680,20720,20430,20180,21820,20300,991100
KPO1101,MRPL,GG,AUCK,kWh,I,F,02/04/1999,21200,21470,21270,21330,21100,21190,21100,21160,21110,21240,22210,20680,20750,20920,20880,20950,21080,20730,20870,20890,21070,21100,20900,20920,20870,20580,21100,21070,21010,20950,21000,21010,20810,20920,20800,19790,21200,21030,21060,21020,21160,21070,21090,20960,20290,22800,22460,20900,1011070
KPO1101,MRPL,GG,AUCK,kWh,I,F,03/04/1999,20000,20870,20330,20360,20420,20300,20390,20410,20310,20260,20300,20790,21100,21690,21940,21920,22140,21390,20190,20260,20220,20200,20280,20340,20230,20580,20020,20220,20290,20330,20280,20520,20990,20230,20280,20200,20290,20080,20110,20320,20220,20410,20470,20300,20280,20360,20160,20430,984010
KPO1101,MRPL,GG,AUCK,kWh,I,F,04/04/1999,20500,20680,20680,20300,20330,20380,20710,20260,20380,20480,20530,20640,20440,20440,20400,20590,20370,20580,20540,20470,20470,20400,20470,20530,20400,20400,20460,20320,20430,20390,20340,20310,19890,20130,19900,20280,20450,20120,19580,19930,20580,19860,20510,20530,20220,20130,20600,20590,977920
KPO1101,MRPL,GG,AUCK,kWh,I,F,05/04/1999,20450,20440,20450,20390,20220,20290,20370,20360,19700,20300,20430,20460,20300,20270,20430,20750,21050,20960,20760,20410,20770,20580,20600,20620,20500,20460,20540,20440,20430,20520,20340,20480,20240,20630,20810,20630,21570,24300,19980,20150,20030,20210,19900,21250,19380,20630,19670,19970,984420
KPO1101,MRPL,GG,AUCK,kWh,I,F,06/04/1999,20890,20870,20800,20560,20520,20360,19840,20310,19890,20310,20250,20410,19930,19650,19850,22900,24100,25640,25380,25430,28780,28970,28740,29010,28440,28980,28870,29170,29750,28330,28480,29460,27720,23570,23640,23370,24830,28080,28160,28260,28660,28630,28780,29530,28200,26880,27090,23620,1203890
KPO1101,MRPL,GG,AUCK,kWh,I,F,07/04/1999,23230,23200,23480,26180,31710,31690,31610,31370,31460,31410,31200,31250,31440,30890,29890,31400,26450,22670,21870,21430,21300,21480,21510,22170,21350,21380,21230,21210,21210,21200,21340,21400,22300,21480,21050,21200,21920,21140,21700,20500,21080,20940,20580,20900,21060,21270,21800,21810,1161340
KPO1101,MRPL,GG,AUCK,kWh,I,F,08/04/1999,21760,21780,21740,21250,21620,21610,21710,21480,21720,21650,21690,21070,22150,21630,21610,22220,21440,21360,21530,21490,22920,24710,26240,29450,29560,30640,30660,30740,30750,30930,30990,31570,30930,30630,30350,30380,30530,30500,29300,25260,25080,25460,22430,21920,26490,26790,27740,28310,1223770
KPO1101,MRPL,GG,AUCK,kWh,I,F,09/04/1999,27020,30010,28510,29930,27540,26520,26310,28530,29460,29550,29180,28800,30220,29830,22650,24010,23070,23390,22850,21480,23140,23140,23150,23070,22900,23080,20380,20400,20250,20510,20550,20470,20300,20020,20300,20410,20380,19820,19900,19730,19690,20140,19700,20650,19810,19760,20280,19800,1120590
KPO1101,MRPL,GG,AUCK,kWh,I,F,10/04/1999,20270,19370,20830,20750,21040,21330,19360,20710,20510,21270,20190,21220,21170,24760,25480,24360,22050,22040,21890,21190,21990,21930,22000,21910,22270,22870,22820,23270,24420,24390,24340,24320,24030,23900,23750,22320,23410,24110,24120,20570,20540,20460,20410,20830,20720,20430,20790,20320,1057030
KPO1101,MRPL,GG,AUCK,kWh,I,F,11/04/1999,20940,20910,20790,20590,20350,20980,20310,19810,20860,21350,21170,21320,21150,21040,21160,21080,21380,21640,21620,20900,21810,21710,21730,21670,21490,21420,21570,21520,21540,21080,21500,21550,21440,20970,21500,21400,22200,21100,21070,20110,19710,19550,19260,21190,20590,20310,20420,20380,1009140
KPO1101,MRPL,GG,AUCK,kWh,I,F,12/04/1999,21590,21670,21670,21640,20960,20840,20350,20480,21330,19530,20510,21460,23710,22130,21680,21020,20680,20530,20690,21120,20320,20370,20330,20330,20310,20270,20520,20200,20130,20680,19830,19970,19890,20070,21230,21390,26930,30270,30300,30590,30590,30480,24830,23090,22300,20410,22170,21540,1062930
KPO1101,MRPL,GG,AUCK,kWh,I,F,13/04/1999,22200,21130,21670,21560,21070,20320,20430,20370,20270,20490,20280,20340,20810,22610,23190,23850,24190,23410,23530,23690,22440,24100,24460,24330,23770,24620,24160,24150,24130,21130,20650,20390,20070,20650,20660,20540,22630,25000,25100,25280,25000,25440,25250,25610,23260,22230,22210,21350,1084020
KPO1101,MRPL,GG,AUCK,kWh,I,F,14/04/1999,20520,21950,22940,22790,22060,21910,21900,21670,21610,21480,21520,21390,22000,21610,20250,20600,21360,20460,20590,19450,19890,19960,19490,19920,19830,19910,20480,19680,21930,20480,21350,20410,20870,20330,20440,21770,22520,20100,19880,19670,20070,19930,24200,25320,25010,20810,20600,20900,1013810
KPO1101,MRPL,GG,AUCK,kWh,I,F,15/04/1999,20450,20570,21090,21030,21400,22100,22020,22060,21940,21920,21890,22060,21590,22750,20880,20120,20800,21830,21930,21730,21900,21820,21700,21820,21710,21920,21820,21740,21600,21910,21870,21850,25390,20800,20850,20720,20910,21720,20180,20760,21320,21330,21010,20910,20850,20530,20430,21320,1030850
KPO1101,MRPL,GG,AUCK,kWh,I,F,16/04/1999,21790,21930,22320,22970,22940,22560,22990,22940,22910,22880,22340,21030,21720,21550,21530,22220,21060,21080,21220,21350,21410,21640,21380,21440,21400,21520,21440,21520,21360,21500,21460,21360,21310,25140,24920,24540,26220,25800,22710,24740,24420,21170,21440,20990,20870,21440,19960,21450,1065880
KPO1101,MRPL,GG,AUCK,kWh,I,F,17/04/1999,20750,20800,19560,19470,19520,20540,20330,21140,21660,20410,20540,20620,24600,26660,26800,26800,29320,31600,33370,31060,31350,31600,31410,31630,31740,31790,32200,35100,37040,36600,37120,36980,36610,37350,37580,40880,41900,41860,41880,41560,42120,41970,41840,41320,42220,39740,38950,33120,1521010
KPO1101,MRPL,GG,AUCK,kWh,I,F,18/04/1999,33600,33260,30540,30990,29200,31930,33920,31770,31610,31420,30080,29580,32520,31100,31400,31370,30890,30090,25290,24390,24300,24210,22060,22050,22090,22150,22070,22100,22150,21980,22120,22080,22050,22020,21910,22710,27680,30450,29740,22550,25410,27420,23920,24260,23830,23580,24390,29820,1286050
KPO1101,MRPL,GG,AUCK,kWh,I,F,19/04/1999,31280,29800,30740,31360,32090,31930,31740,31290,31920,31860,31820,31640,31480,31400,30810,28940,27110,26870,27160,21790,23440,26700,26330,27560,26230,26210,24710,26430,28570,26910,27040,23380,26950,26960,26740,28560,28730,26440,22160,20490,20300,20820,21240,20990,21480,20110,20980,20770,1290260
KPO1101,MRPL,GG,AUCK,kWh,I,F,20/04/1999,21330,21450,21170,20830,20300,21200,20560,20420,21320,21300,21090,22470,21890,22400,23310,22530,19870,22610,25170,21720,22350,21190,22530,20860,20220,21170,20520,21400,20090,21120,20320,20650,20870,21200,20350,22190,22210,22640,21230,21100,24820,21570,20590,20870,20820,20590,24960,20820,1032190
KPO1101,MRPL,GG,AUCK,kWh,I,F,21/04/1999,23290,20730,23420,22190,21610,22370,23320,21020,25000,21740,22610,23600,25050,26840,23170,24130,21750,20990,20310,20930,22170,22950,21860,21730,21700,23940,20260,22550,23010,20570,22150,22530,21750,22450,21260,24030,32280,25280,25440,31740,23440,28950,26360,27750,27050,21520,23030,31310,1133130
KPO1101,MRPL,GG,AUCK,kWh,I,F,22/04/1999,32090,33310,30910,32060,29860,33280,32300,32010,30180,33240,32750,31980,32320,33400,32550,27540,39040,39970,38250,37650,38890,40690,39050,39470,38430,36610,39560,36560,33630,35280,32540,31860,30250,30740,33420,38680,37180,33420,31470,31150,30590,28820,30530,29550,31620,29060,30050,32040,1615830
KPO1101,MRPL,GG,AUCK,kWh,I,F,23/04/1999,32850,31180,28490,31750,30900,31120,32320,29890,29750,29560,31170,29230,31540,32610,31770,28590,31230,29950,33610,31770,34230,35690,37860,33950,34550,36230,35940,36610,35030,35330,36360,35980,33920,33930,35140,32380,31760,33730,32000,32990,35300,33310,32340,33040,35340,31090,36500,35780,1585590
KPO1101,MRPL,GG,AUCK,kWh,I,F,24/04/1999,38270,38840,38240,37360,39420,39090,37540,39380,36560,36330,36110,41370,37730,36910,38300,38000,37680,42470,44960,43820,39620,36980,33190,33170,35520,35540,33930,35570,33000,33590,33470,34190,33400,32590,33150,36310,31340,32280,32410,28000,33370,33860,32260,34980,33880,33360,32160,33560,1723060
KPO1101,MRPL,GG,AUCK,kWh,I,F,25/04/1999,24460,21170,21610,22080,22090,23030,21190,19960,22010,20920,21340,20030,21330,20140,22920,22830,21980,22040,21930,21220,20880,20070,20610,22250,21260,20850,20320,20550,20530,21980,22570,21570,21110,21690,22040,28010,28020,28690,23000,23770,22730,21270,21030,22860,22180,21160,21620,25060,1061960
KPO1101,MRPL,GG,AUCK,kWh,I,F,26/04/1999,24640,25870,24620,25920,25030,25500,25240,27540,26670,25460,26190,29300,27010,25940,27260,29500,28760,29990,29930,31180,30010,28210,27610,26710,27010,26220,24020,24960,25380,25020,24470,27870,28530,33300,37230,35200,30460,29410,30180,34140,32910,37850,35670,38550,37250,35940,36270,33450,1405380
KPO1101,MRPL,GG,AUCK,kWh,I,F,27/04/1999,34480,37140,37890,36010,36670,36280,38800,38860,38780,39140,38120,39440,40740,41810,42850,40060,42770,40230,36200,35160,36330,36010,36280,36480,34440,35860,37300,38290,34900,31330,31280,31310,32910,32990,33640,36820,32510,33020,33190,33950,34620,33190,35420,32690,33280,34030,34190,34000,1731690
KPO1101,MRPL,GG,AUCK,kWh,I,F,28/04/1999,35230,34470,34380,34380,36320,35340,36430,33670,33490,37360,29690,27690,28960,28440,28240,28750,31080,31540,30260,31590,31910,31830,31790,31560,31850,31540,31230,31250,31620,30940,30980,30820,31040,31190,31340,31170,36220,36310,35850,35120,35550,34350,33420,34420,35800,33350,37550,35450,1572760
KPO1101,MRPL,GG,AUCK,kWh,I,F,29/04/1999,35500,35760,35850,37170,33090,37450,35360,36550,34170,32770,33930,31250,30380,32350,35540,42630,42880,43080,43140,42610,35300,32130,32560,31430,31510,31550,31750,34600,35090,34710,30280,31640,32390,31950,31850,32750,34270,31740,32460,34030,33520,35220,31400,32730,34040,33010,36150,32150,1653670
KPO1101,MRPL,GG,AUCK,kWh,I,F,30/04/1999,36710,32190,32380,32810,32640,31780,34200,34080,36780,31510,32710,33310,36130,36630,36950,40870,41910,41940,42260,34870,32850,32840,32760,32860,32910,32970,33380,32760,34140,32260,32640,32830,32850,33240,32870,32710,32470,32920,32480,32380,34480,34360,31470,34050,33020,32320,31070,35900,1636450
KPO1101,MRPL,GG,AUCK,kWh,I,F,01/05/1999,33410,32340,30180,31130,31030,31450,32270,31450,29760,30180,32180,30180,30680,30210,29070,27620,25060,22550,22950,22700,24040,24730,23550,23380,22170,21450,23830,21640,21140,21510,21160,21320,21480,21670,21900,27660,23130,20600,21630,24490,22640,20910,22400,22020,22610,21480,21640,26090,1218670
KPO1101,MRPL,GG,AUCK,kWh,I,F,02/05/1999,27810,28850,29170,30500,30250,30150,30060,30150,29690,29570,21610,21640,21610,22380,21300,21490,22710,21220,22040,26360,31230,31100,31660,32980,32420,33660,34090,33590,33130,31310,32210,32430,32490,31590,32510,32630,32220,30190,30670,33540,34600,28550,32430,31240,30680,34770,32950,33940,1423370
KPO1101,MRPL,GG,AUCK,kWh,I,F,03/05/1999,33440,35330,37480,35890,37120,37110,37050,36750,36530,37280,36340,29950,29210,31750,32130,32320,30460,30620,31720,30190,31660,31490,31700,31470,32720,32150,31960,32030,31730,31660,31860,33380,35690,36660,37860,39490,38530,33750,34220,32990,35490,39000,37210,39150,38790,39290,39790,36870,1657260
KPO1101,MRPL,GG,AUCK,kWh,I,F,04/05/1999,35700,34810,35150,36690,34380,35150,34780,35540,34850,35470,36380,36670,36950,37840,39700,38820,38440,38540,38600,38640,38450,38610,38570,38690,38730,38610,35000,34260,34660,34650,34840,34460,37790,40040,40010,42180,39460,39530,39550,40250,39630,40170,34940,38000,33800,36940,39070,39140,1793130
KPO1101,MRPL,GG,AUCK,kWh,I,F,05/05/1999,38380,39600,40330,40450,40450,39130,40670,39670,44890,33820,32620,35410,40290,40100,40500,39620,39730,39960,34630,33180,33340,33610,33550,33510,33370,33590,33570,33500,33410,33390,33630,34870,38850,39670,42850,42790,42750,44510,42080,42500,42180,42230,40700,39720,36940,34730,37210,34180,1820660
KPO1101,MRPL,GG,AUCK,kWh,I,F,06/05/1999,36360,32720,34860,36600,34750,33760,30670,32030,31820,32350,30020,33000,27990,34350,37850,35270,37100,37210,37200,37470,38600,38510,39800,41820,39020,39360,39430,39620,39620,39650,39870,39560,39830,40230,42310,41390,40860,40930,42480,42410,42130,40150,40160,40750,40820,32570,31490,31310,1788060
KPO1101,MRPL,GG,AUCK,kWh,I,F,07/05/1999,28820,28540,28180,27880,29490,28860,30280,27640,34230,35160,38180,37110,35520,36090,36140,34870,35060,35230,35430,30120,28280,29080,29060,29110,29100,29530,29500,29320,27110,27220,28660,28720,28540,28520,29160,28580,28040,27920,27750,27400,27270,27420,27480,26960,26490,24940,27770,26830,1438590
KPO1101,MRPL,GG,AUCK,kWh,I,F,08/05/1999,24040,25230,25220,25440,25060,24530,23760,24180,25580,24240,24180,24540,23870,24410,24040,22130,22810,22260,21440,21660,21670,21550,21820,21790,21930,21880,21740,21530,21870,21030,22000,21860,21840,21740,21860,21980,29680,30340,30290,30210,29350,30740,31450,31430,30740,30690,31650,28950,1192230
KPO1101,MRPL,GG,AUCK,kWh,I,F,09/05/1999,32200,31880,32660,33150,32850,29350,28610,28340,28100,26610,26190,25910,25160,24110,23580,26440,25470,26070,23590,23480,23420,23150,22470,22470,22400,20780,20350,20190,20590,20540,20550,20500,20560,20480,21150,21720,21710,21780,21060,19630,22070,19870,20440,21930,22570,20970,22100,22000,1151200